Retour au catalogue

CZ-6A DEB

ActifSSO
NORAD 66790·DEBRIS·🇨🇳 China

Lancé Nov 11, 2022 depuis Taiyuan Satellite Launch Center

Loading…

Prochains Passages (prochaines 24 heures)

TLE

FraisSource: Space-Track

Époque: Sep 12, 2026, 00:07 UTC

1 66790U 22151AJG 26255.00521859  .00001262  00000-0  63652-3 0  9995
2 66790  98.8210 260.4869 0042428  43.7237 316.7286 14.17631039179330

Suivez CZ-6A DEB en temps réel avec AllMySat

Download on the App Store